Domov               UVHVVR             MKGP            O straneh              
ZDRAVSTVENO VARSTVO RASTLIN
  MREŽA AGROMET. POSTAJ
 ► PROGNOSTIČNA OBVESTILA
AGROMETEOROLOŠKI PODATKI -
ARSO
OBVLADOVANJE TVEGANJ ZARADI
NEUGODNIH VREMENSKIH RAZMER
  ► NARAVNE NESREČE
  ► SUŠA/MOČA
  ► NAMAKANJE
  ► ŽLED (gozdarstvo)
KARTOGRAFSKI PRIKAZI
SPLETNE POVEZAVE
PROJEKTI IN PUBLIKACIJE

AGROMETEOROLOŠKA MREŽA: VREMENSKE POSTAJE IN FENOLOŠKA OPAZOVANJA

Pregled podatkov za lokacijo Slap, meteorološka postaja 49193

Pregled senzorjev na lokaciji

ID Ime Zadnja
vrednost
Datum
zadnje
spremembe
Tip
senzorja
3687 Temperatura 2 m (°C) 6,69 °C 20.1.2018 11:30 50YA
3688 Relativna vlaga 2 m (% RH) 74,52 % RH 20.1.2018 11:30 50YA
3689 Omočenost lista (U) 0 U 16.11.2017 05:00 A730WET
3690 Sončno sevanje (W/m2) 2000 W/m2 20.1.2018 11:30 Pyranometer SP-Lite
3691 Temperatura tal 5 cm (°C) 5,17 °C 20.1.2018 11:30 99TG411E
3692 Hitrost vetra (km/h) 3,54 km/h 20.1.2018 11:30 566.2S-176 (200km/h)
3693 Smer vetra (°) 323,96 ° 20.1.2018 11:30 566.2S-130
3694 Padavine (mm) 0 mm 20.1.2018 11:30 Rain-O-Matic

Pregled podatkov zadnjih 24 ur

Zap.
št.
Datum in čas Slap
Hitrost
vetra
Omočenost
lista
Padavine Relativna
vlaga
2
m
Smer
vetra
Sončno
sevanje
Temperatura
2
m
Temperatura
tal
5
cm
0 20.1.2018 11:30 3,54 0 74,52 323,96 2000 6,69 5,17
1 20.1.2018 11:00 3,63 0 77,88 315,2 2000 6,2 5,2
2 20.1.2018 10:30 4,37 0 85,62 111,65 2000 4,86 5,19
3 20.1.2018 10:00 3 0 92,67 251,18 2000 3,09 5,14
4 20.1.2018 09:30 5,15 0 94,54 155,02 2000 2,16 5,11
5 20.1.2018 09:00 3,85 0 95,07 207,64 2000 1,23 5,11
6 20.1.2018 08:30 3,35 0 94,4 141,98 2000 0,77 5,1
7 20.1.2018 08:00 3,77 0 95,17 191,72 2000 -0,01 5,02
8 20.1.2018 07:30 4,21 0 94,94 184,39 1237,26 -1,16 4,8
9 20.1.2018 07:00 4,75 0 95,42 159,58 57,19 -1,47 4,82
10 20.1.2018 06:30 2,83 0 91,23 176,19 32,47 -0,59 4,86
11 20.1.2018 06:00 4,49 0 88,49 181 38,15 0,39 4,91
12 20.1.2018 05:30 3,65 0 81,68 212,61 29,76 1,44 4,97
13 20.1.2018 05:00 4,49 0 73,88 147,13 27,92 3,29 5,02
14 20.1.2018 04:30 3,02 0 73,96 320,16 34,09 3,33 5,05
15 20.1.2018 04:00 2,84 0 73,89 11,12 28,75 3,73 5,09
16 20.1.2018 03:30 5,97 0 71,87 24,53 35,28 4,28 5,13
17 20.1.2018 03:00 6,05 0 66,6 91,59 33,69 4,93 5,15
18 20.1.2018 02:30 8,36 0 66,37 304,43 22,83 5,12 5,19
19 20.1.2018 02:00 8,08 0 63,96 5,3 26,64 5,45 5,2
20 20.1.2018 01:30 10,35 0 65,5 269,59 27,22 5,4 5,21
21 20.1.2018 01:00 10,77 0 66,26 300,86 5,44 5,22
22 20.1.2018 00:30 10,74 0 63,99 173,49 5,97 5,22
23 20.1.2018 00:00 7,39 0 64,48 285,38 5,98 5,21
24 19.1.2018 23:30 7,43 0 63,55 340,6 6,12 5,22
25 19.1.2018 23:00 9,93 0 60,54 124,58 6,76 5,24
26 19.1.2018 22:30 8,59 0 62,05 259,15 6,88 5,24
27 19.1.2018 22:00 10,63 0 65,88 276,09 6,86 5,21
28 19.1.2018 21:30 8,43 0 67,35 253,52 7,03 5,2
29 19.1.2018 21:00 7,43 0 71,85 237,03 6,69 5,18
30 19.1.2018 20:30 7,13 0 81,82 32,59 6,02 5,17
31 19.1.2018 20:00 2,68 0 95,43 127,28 4,78 5,13
32 19.1.2018 19:30 1,46 0 93,97 101,22 5,03 5,13
33 19.1.2018 19:00 1,14 0 92,94 242,99 5,34 5,12
34 19.1.2018 18:30 4,2 0 89,84 35,17 5,91 5,11
35 19.1.2018 18:00 5,5 0 92,79 186,05 5,95 5,11
36 19.1.2018 17:30 5,29 0 98,48 230,45 6,35 5,11
37 19.1.2018 17:00 3,74 0 100 229,35 7,04 5,09
38 19.1.2018 16:30 3,48 0 100 314,03 7,12 5,08
39 19.1.2018 16:00 0,71 0,2 100 17,94 7,2 5,05
40 19.1.2018 15:30 3,06 0 100 268,42 7,41 5,04
41 19.1.2018 15:00 1,34 0,4 100 31,74 7,53 5,05
42 19.1.2018 14:30 4,37 0,2 100 331,68 7,89 5,1
43 19.1.2018 14:00 3,33 0,2 100 18,63 7,98 5,07
44 19.1.2018 13:30 3,38 0 100 196,79 7,94 5,1
45 19.1.2018 13:00 3,44 0,2 100 159,52 7,46 4,95
46 19.1.2018 12:30 2,55 0,8 100 254,49 7,44 5,04
© 2011 Ministrstvo za kmetijstvo, gozdarstvo in prehrano. Vse pravice pridržane.